Regional Weather Roundup
Issued by NWS Midland/Odessa, TX

Home | Current Version | Previous Version | Text Only | Print | Product List | Glossary On
Versions: 1 2 3 4 5 6 7 8 9 10 11 12 13 14 15 16 17 18 19 20 21 22 23 24 25 26 27 28 29 30 31 32 33 34 35 36 37 38 39 40 41 42 43 44 45 46 47 48 49 50
000
ASUS44 KMAF 200001
RWRMAF
MIDLAND AREA WEATHER ROUNDUP
NATIONAL WEATHER SERVICE MIDLAND TX
700 PM CDT SUN APR 19 2015

...IN SOUTHWEST TEXAS AND SOUTHEAST NEW MEXICO...

CITY           SKY/WX    TMP DP  RH WIND       PRES   REMARKS
ALPINE         MOSUNNY   72  31  22 E10       30.01S
ANDREWS        FAIR      66  36  33 N16       29.97S
ARTESIA        SUNNY     72  28  20 E8        29.93F
BIG SPRING     SUNNY     74  37  25 N20G25    29.96R
CARLSBAD       SUNNY     75  27  17 N12       29.91F
DRYDEN           N/A     83  35  18 N14G24    29.82S
FORT STOCKTON  SUNNY     76  30  18 N12       29.91R
GUAD PASS      NOT AVBL
HOBBS          SUNNY     64  34  32 NE16G23   29.99R
MARFA          NOT AVBL
MIDLAND AIRPK  SUNNY     72  35  25 NE12G23   29.95R
MIDLAND INTL   SUNNY     71  36  27 N21       29.94R
ODESSA         SUNNY     71  34  25 N20G25    29.95R
PECOS          SUNNY     78  31  18 NE9       29.89S
PRESIDIO       FAIR      84  21  10 SW5       29.83F
SEMINOLE       SUNNY     65  35  33 N13G20    30.00R
SNYDER         SUNNY    N/A N/A N/A N18G25    29.95R
WINK           SUNNY     76  27  16 NE17      29.90S
$$
...OTHER STATIONS IN TEXAS...

CITY           SKY/WX    TMP DP  RH WIND       PRES   REMARKS
ABILENE        SUNNY     71  39  31 N23       29.89R
AMARILLO       SUNNY     60  27  28 N17       29.97S
AUSTIN         MOSUNNY   82  44  26 NW15      29.75R
BROWNSVILLE    CLOUDY    79  75  87 E12       29.74S
CORPUS CHRISTI CLOUDY    80  74  81 S8        29.75R
DALLAS FTW     MOSUNNY   74  48  39 NW23G29   29.75R
DEL RIO        SUNNY     88  36  15 N7        29.77R
EL PASO        MOSUNNY   78  15   9 SW7       29.86F
HOUSTON INT    TSTM      68  57  68 NW18G25   29.78R
LUBBOCK        SUNNY     61  36  39 N15       29.98S
SAN ANGELO     SUNNY     76  40  27 N18       29.87R
SAN ANTONIO    MOSUNNY   86  45  23 NW9       29.75R
WACO           SUNNY     77  49  37 NW13      29.77R
WICHITA FALLS  NOT AVBL
$$
...OTHER LOCATIONS IN NEW MEXICO...

CITY           SKY/WX    TMP DP  RH WIND       PRES   REMARKS
ALAMAGORDO     PTSUNNY   70  25  18 W6        29.92R
ALBUQUERQUE    PTSUNNY   66  20  17 SW13      29.94F
CANNON AFB     NOT AVBL
CLOVIS         SUNNY     61  27  27 NE8G16    29.99F
HOLLOMAN AFB   NOT AVBL
ROSWELL        SUNNY     70  31  23 E9        29.94F
RUIDOSO        CLOUDY    54  27  35 SE13      30.06R
SANTA FE       MOSUNNY   60  20  21 CALM      29.96F
TRUTH OR CONSE CLOUDY    70  21  15 W20       29.92F
TUCUMCARI      SUNNY     63  25  23 E13       29.96F
$$



USA.gov is the U.S. government's official web portal to all federal, state and local government web resources and services.